Showing default

GALILEO 19 (2C5), 43055

Orbit data source: Space-Track

GALILEO 19 (2C5), 43055 is a payload satellite owned by GNSS Agency (ESA) that was launched on Tue, 12 Dec 2017 UTC via an ARIANE 5ES launch vehicle from the French Guiana (FRGUI). Payloads include a variety of satellites, spacecraft, and rockets equipped with specific instruments for various scientific and technological missions. These include communications satellites like Starlink; space stations such as the ISS; scientific satellites like the Hubble; Earth observation satellites from companies like Planet Labs, Umbra, and HawkEye 360; GPS; miniature CubeSats for education and research; and military/defense satellites.

Loading next visibility...
GALILEO 19 (2C5) details
Identifier
43055, 2017-079A
Orbit
Active
Last TLE update1 day ago
Origin
Flag of ESAGNSS Agency (ESA)
ManufacturerOHB
MissionOperational Civil Navigation
Bus & MotorGALILEOSAT, AOCS
Mass715 kg wet, 700 kg dry
Launch date (UTC)
2017-12-12 (7 years ago)
Launch vehicle
ARIANE 5ES
Launch site
French Guiana (FRGUI)
Object type
Payload
Rocket body
Debris
Shape & HBRBox + 2 Pan, 14.71 m
Radar Cross Section9.223 m², Large (>1 m²)

Expand to show TLE details & history

TLE from 1 day ago
0 GALILEO 19 (2C5)
1 43055U 17079A   24360.53317899  .00000046  00000-0  00000-0 0  9991
2 43055  55.2590 236.3312 0001298 330.9194  29.1615  1.70474087 43801
Epoch: 2024-12-25T12:47Z
Definitive object data (Epoch: 2024-12-25T12:47:46.664Z)
Latitude0.00003°
Longitude-50.1291°
Altitude23,219.082 km
Speed3.67 km/s
True Right ascension15h 45m 21s
True Declination0° 00' 00"
Sunlit
Object was in daylight at TLE epoch
Visualization TLE readout
Latitude-55.23867°
Longitude-144.13773°
Altitude23,240.778 km
Speed3.669 km/s
Apparent Right ascension08h 29m 18s
Apparent Declination-63° 33' 26"
Sunlit
Object is in daylight
Visualization observer readout
Local Sidereal Time12:42:18
Azimuth205.998° SW
Elevation-24.885°
Doppler factor1
Orbital elements
Apogee altitude23,226.014 km
Perigee altitude23,218.33 km
Semi-major axis29,600.309 km
Eccentricity0.0001298
Inclination55.259°
RAAN236.3312°
Arg. of periapsis330.9194°
True anomaly29.16875°
Mean anomaly29.1615°
Eccentric anomaly29.16512°
Mean motion0.42619 °/min
BSTARUnknown
Orbital period844.7 mins
Loading maneuver chart data...
Loading historical data...
Loading historical data...
Loading historical data...
Loading historical data...
Loading historical data...
Loading historical data...
Loading historical data...

GALILEO 19 (2C5) Visibility forecast

Observer location: undefined°, undefined

Span
Click to sort rows by Start time (UTC) header in descending order
Start Az.
Max El. time (UTC)
Max El. Az.
Max El.
End time (UTC)
End Az.
483 mins2024-12-26 15:38:38.491Z189.168° SSW2024-12-26 19:01:38.491Z301.641° NW44.963°2024-12-26 23:41:38.491Z101.167° ESE
|